Total_Precipitation_Accumulation
-0.01 -0.02 -0.03 0.02 0.03 0.03 0.01 0.01 0.00 0.00 0.00 0.01 0.02 0.02 0.02 -0.00 -0.00 0.00 0.00 0.00 0.00 0.00 0.00 0.00 0.00 0.00 0.00 0.00 0.00 0.00 0.00 0.00 0.00 0.00 0.00 0.00 0.00 0.00 0.01 0.01 0.01 0.01 0.01 0.00 0.00 0.00 0.00 0.00 0.00 0.00 0.00 0.00 0.00 0.00 0.00 0.00 0.00 0.00 0.00 0.00 0.00 0.00 0.03 0.04 0.01 0.01 0.00 0.00 0.00 0.00 0.00 0.00 0.00 0.00 0.00 0.00 0.00 0.00 0.00 -0.00 -0.00 -0.02 -0.01 0.00 -0.00 -0.00 0.00 0.00 0.00 0.00 0.00 0.00 0.00 0.00 0.00 0.00 0.00 0.00 0.00 0.00 0.00 0.00 0.00
-0.02 -0.02 -0.02 0.02 0.02 0.02 0.02 0.01 0.00 0.00 0.00 0.01 0.03 0.03 0.02 0.01 0.01 0.00 0.00 0.00 0.00 0.00 0.00 0.00 0.00 0.00 0.00 0.00 0.00 0.00 0.00 0.00 0.00 0.00 0.00 0.00 0.00 0.00 0.00 0.00 0.00 0.00 0.00 0.00 0.00 0.00 0.00 0.00 0.00 0.00 0.00 0.00 0.00 0.00 0.00 0.00 0.00 0.00 0.00 0.00 0.00 0.00 0.02 0.01 0.00 0.00 0.00 0.00 0.00 0.00 0.00 0.00 0.00 0.00 0.00 0.00 0.00 0.00 0.00 0.00 0.00 0.00 0.00 0.00 -0.00 -0.00 -0.00 0.00 0.00 0.00 0.00 0.00 0.00 0.00 0.00 0.00 0.00 0.00 0.00 0.00 0.00 0.00 0.00
-0.02 -0.03 -0.01 0.00 0.00 0.00 0.01 0.01 0.00 0.00 0.00 0.01 0.03 0.03 0.02 0.01 0.01 0.01 0.00 0.00 0.00 0.00 0.00 0.00 0.00 0.00 0.00 0.00 0.00 0.00 0.00 0.00 0.00 0.00 0.00 0.00 0.00 0.00 0.00 0.00 0.00 0.00 0.00 0.00 0.00 0.00 0.00 0.00 0.00 0.00 0.00 0.00 0.00 0.00 0.00 0.00 0.00 0.00 0.00 0.00 0.00 0.00 0.02 0.00 0.00 0.00 0.00 0.00 0.00 0.00 0.00 0.00 0.00 0.00 0.00 0.00 0.00 0.00 0.00 0.00 0.00 -0.00 -0.00 -0.00 -0.03 -0.03 -0.03 0.00 0.00 0.00 0.00 0.00 0.00 0.00 0.00 0.00 0.00 0.00 0.00 0.01 0.01 0.01 0.00
-0.02 -0.02 -0.02 -0.00 0.00 0.00 0.00 0.00 0.00 0.00 0.01 0.01 0.07 0.07 0.06 0.01 0.01 0.01 0.00 0.00 0.00 0.00 0.00 0.00 0.00 0.00 0.00 0.00 0.00 0.00 0.00 0.00 0.00 0.00 0.00 0.00 0.00 0.00 0.00 0.00 0.00 0.00 0.00 0.00 0.00 0.00 0.00 0.00 0.00 0.00 0.00 0.00 0.00 0.00 0.00 0.00 0.00 0.00 0.00 0.00 0.00 0.01 0.00 0.00 0.00 0.00 0.00 0.00 0.00 0.00 0.00 0.00 0.00 0.00 0.00 0.00 0.00 0.00 0.00 0.00 0.00 -0.02 -0.00 -0.04 -0.03 -0.03 -0.02 0.00 -0.00 -0.00 -0.00 0.00 0.00 0.00 0.00 0.00 0.00 0.00 0.01 0.01 0.01 0.01 0.00
-0.01 0.00 -0.01 -0.01 0.00 0.00 0.00 0.00 0.00 0.00 0.01 0.02 0.09 0.09 0.06 0.01 0.01 0.02 0.00 0.00 0.00 0.00 0.00 0.00 0.00 0.00 0.00 0.00 0.00 0.00 0.00 0.00 0.00 0.00 0.00 0.00 0.00 0.00 0.00 0.00 0.00 0.00 0.00 0.00 0.00 0.00 0.00 0.00 0.00 0.00 0.00 0.00 0.00 0.00 0.00 0.00 0.00 0.00 0.00 0.00 0.00 0.00 0.00 0.00 0.00 0.00 0.00 0.00 0.00 0.00 0.00 0.00 0.00 0.00 0.00 0.00 0.00 0.00 0.00 -0.01 -0.01 -0.06 -0.04 -0.18 -0.11 -0.11 -0.00 0.00 -0.00 -0.00 -0.04 0.00 0.00 0.00 0.00 0.00 0.00 0.00 0.01 0.00 0.00 0.00 0.00
-0.01 -0.01 -0.03 -0.05 0.00 0.00 0.00 0.00 0.00 0.00 0.02 0.02 0.09 0.09 0.04 0.02 0.02 0.02 0.01 0.01 0.01 0.00 0.00 0.00 0.00 0.00 0.00 0.00 0.00 0.00 0.00 0.00 0.00 0.00 0.00 0.00 0.00 0.00 0.00 0.00 0.00 0.00 0.00 0.00 0.00 0.00 0.00 0.00 0.00 0.00 0.00 0.00 0.00 0.00 0.00 0.00 0.00 0.00 0.00 0.00 0.00 0.00 0.00 0.00 0.00 0.00 0.00 0.00 0.00 0.00 0.00 0.00 0.00 0.00 0.00 0.00 0.00 0.00 0.00 -0.00 -0.00 -0.03 -0.21 -0.06 -0.06 -0.06 -0.01 -0.00 -0.01 -0.01 -0.09 0.00 0.00 0.00 0.00 0.00 0.00 0.00 0.00 0.00 0.00 0.00 0.00
-0.00 -0.04 -0.09 -0.10 0.00 0.00 0.00 0.00 0.00 0.00 0.02 0.03 0.08 0.08 0.05 0.02 0.02 0.02 0.01 0.01 0.01 0.00 0.00 0.00 0.00 0.00 0.00 0.00 0.00 0.00 0.00 0.00 0.00 0.00 0.00 0.00 0.00 0.00 0.00 0.00 0.00 0.00 0.00 0.00 0.00 0.00 0.00 0.00 0.00 0.00 0.00 0.00 0.00 0.00 0.00 0.00 0.00 0.00 0.00 0.00 0.00 0.00 0.00 0.00 0.00 0.00 0.00 0.00 0.00 0.00 0.00 0.00 0.00 0.00 0.00 0.00 0.00 0.00 0.00 -0.02 -0.02 -0.05 -0.37 -0.09 -0.00 -0.00 -0.00 -0.14 -0.03 -0.03 -0.11 0.00 0.00 0.00 0.00 0.00 0.00 0.00 0.00 0.00 0.00 0.00 0.00
-0.00 -0.01 -0.07 -0.07 -0.00 -0.00 0.00 0.00 0.01 0.01 0.03 0.03 0.08 0.08 0.05 0.03 0.03 0.02 0.01 0.01 0.01 0.00 0.00 0.00 0.00 0.00 0.00 0.00 0.00 0.00 0.00 0.00 0.00 0.00 0.00 0.00 0.00 0.00 0.00 0.00 0.00 0.00 0.00 0.00 0.00 0.00 0.00 0.00 0.00 0.00 0.00 0.00 0.00 0.00 0.00 0.00 0.00 0.00 0.00 0.00 0.00 0.00 0.00 0.00 0.00 0.00 0.00 0.00 0.00 0.00 0.00 0.00 0.00 0.00 0.00 0.00 0.00 0.00 0.00 -0.08 -0.08 -0.15 -0.02 -0.03 -0.02 -0.02 -0.00 -0.30 -0.06 -0.06 -0.16 -0.06 0.00 0.00 0.00 0.00 0.00 0.00 0.00 0.00 0.00 0.00 0.00
0.00 -0.01 -0.08 -0.06 -0.00 -0.00 0.00 0.00 0.01 0.01 0.03 0.03 0.07 0.07 0.05 0.06 0.06 0.02 0.01 0.01 0.01 0.01 0.00 0.00 0.00 0.00 0.00 0.00 0.00 0.00 0.00 0.00 0.00 0.00 0.00 0.00 0.00 0.00 0.00 0.00 0.00 0.00 0.00 0.00 0.00 0.00 0.00 0.00 0.00 0.00 0.00 0.00 0.00 0.00 0.00 0.00 0.00 0.00 0.00 0.00 0.00 0.00 0.00 0.00 0.00 0.00 0.00 0.00 0.00 0.00 0.00 0.00 0.00 0.00 0.00 0.00 0.00 0.00 0.00 -0.02 -0.02 -0.17 -0.30 0.05 -0.00 -0.00 -0.00 -0.31 -0.12 -0.12 -0.20 -0.03 0.00 0.00 0.00 0.00 0.00 0.00 0.00 0.00 0.00 0.00 0.00
0.00 -0.00 -0.08 -0.05 -0.00 -0.00 0.00 0.01 0.02 0.02 0.02 0.04 0.06 0.06 0.03 0.02 0.02 0.01 0.01 0.00 0.00 0.00 0.00 0.00 0.00 0.00 0.00 0.00 0.00 0.00 0.00 0.00 0.00 0.00 0.00 0.00 0.00 0.00 0.00 0.00 0.00 0.00 0.00 0.00 0.00 0.00 0.00 0.00 0.00 0.00 0.00 0.00 0.00 0.00 0.00 0.00 0.00 0.00 0.00 0.00 0.00 0.00 0.00 0.00 0.00 0.00 -0.00 0.00 0.00 0.00 0.00 0.00 0.00 0.00 0.00 0.00 0.00 -0.00 0.00 -0.06 -0.06 -0.14 -0.55 0.01 -0.00 -0.00 -0.00 -0.00 -0.17 -0.17 -0.12 -0.00 0.00 0.00 0.00 0.00 0.00 0.00 0.00 0.00 0.00 0.00 0.00
0.01 -0.01 -0.07 -0.04 -0.00 -0.00 0.00 0.01 0.02 0.02 0.03 0.04 0.07 0.07 0.01 0.01 0.01 0.01 0.01 0.00 0.00 0.00 0.00 0.00 0.00 0.00 0.00 0.00 0.00 0.00 0.00 0.00 0.00 0.00 0.00 0.00 0.00 0.00 0.00 0.00 0.00 0.00 0.00 0.00 0.00 0.00 0.00 0.00 0.00 0.00 0.00 0.00 0.00 0.00 0.00 0.00 0.00 0.00 0.00 0.00 0.00 0.00 0.00 0.00 0.00 0.00 0.00 0.00 0.00 0.00 0.00 0.00 0.00 0.00 0.00 0.00 0.00 -0.00 0.00 -0.07 -0.07 -0.14 -0.47 0.19 0.12 0.12 0.00 -0.00 -0.19 -0.19 -0.14 -0.02 0.00 0.00 0.00 0.00 0.00 0.00 0.00 0.00 0.00 0.00 0.00
0.01 -0.00 -0.06 -0.03 -0.00 -0.00 0.00 0.01 0.03 0.03 0.03 0.05 0.06 0.06 0.01 0.01 0.01 0.00 0.01 0.00 0.00 0.00 0.00 0.00 0.00 0.00 0.00 0.00 0.00 0.00 0.00 0.00 0.00 0.00 0.00 0.00 0.00 0.00 0.00 0.00 0.00 0.00 0.00 0.00 0.00 0.00 0.00 0.00 0.00 0.00 0.00 0.00 0.00 0.00 0.00 0.00 0.00 0.00 0.00 0.00 0.00 0.00 0.00 0.00 0.00 0.00 0.00 0.00 0.00 0.00 0.00 0.00 0.00 0.00 0.00 0.00 0.00 0.00 0.00 -0.04 -0.04 -0.13 -0.32 0.23 0.10 0.10 0.00 -0.04 -0.16 -0.16 -0.10 -0.00 0.00 0.00 0.00 0.00 0.00 0.00 0.00 0.00 0.00 0.00 0.00
0.02 -0.00 -0.05 -0.03 -0.02 -0.02 0.00 0.02 0.03 0.03 0.03 0.08 0.07 0.07 0.01 0.01 0.01 0.00 0.00 0.00 0.00 0.00 0.00 0.00 0.00 0.00 0.00 0.00 0.00 0.00 0.00 0.00 0.00 0.00 0.00 0.00 0.00 0.00 0.00 0.00 0.00 0.00 0.00 0.00 0.00 0.00 0.00 0.00 0.00 0.00 0.00 0.00 0.00 0.00 0.00 0.00 0.00 0.00 0.00 0.00 0.00 0.00 0.00 0.00 -0.00 -0.00 0.00 0.00 0.00 0.00 0.00 0.00 0.00 0.00 0.00 0.00 0.00 0.00 0.00 -0.01 -0.01 -0.08 -0.13 0.05 0.08 0.08 0.00 -0.06 -0.10 -0.10 -0.08 -0.00 0.00 0.00 0.00 0.00 0.00 0.00 0.00 0.00 0.00 0.00 0.00
0.03 0.01 -0.01 -0.03 -0.01 -0.01 0.01 0.03 0.03 0.03 0.03 0.11 0.08 0.08 0.03 0.01 0.01 0.00 0.00 0.00 0.00 0.00 0.00 0.00 0.00 0.00 0.00 0.00 0.00 0.00 0.00 0.00 0.00 0.00 0.00 0.00 0.00 0.00 0.00 0.00 0.00 0.00 0.00 0.00 0.00 0.00 0.00 0.00 0.00 0.00 0.00 0.00 0.00 0.00 0.00 0.00 0.00 0.00 0.00 0.00 0.00 0.00 0.00 0.00 0.00 0.00 0.00 0.00 0.00 0.00 0.00 0.00 0.00 0.00 0.00 0.00 0.00 0.00 0.00 -0.02 -0.02 -0.02 0.02 0.05 0.21 0.21 -0.00 -0.02 -0.06 -0.06 -0.03 -0.00 0.00 0.00 0.00 0.00 0.00 0.00 0.00 0.00 0.00 0.00 0.00
0.03 0.01 -0.01 -0.02 -0.01 -0.01 0.02 0.04 0.05 0.05 0.02 0.10 0.16 0.16 0.03 0.01 0.01 0.00 0.00 0.00 0.00 0.00 0.00 0.00 0.00 0.00 0.00 0.00 0.00 0.00 0.00 0.00 0.00 0.00 0.00 0.00 0.00 0.00 0.00 0.00 0.00 0.00 0.00 0.00 0.00 0.00 0.00 0.00 0.00 0.00 0.00 0.00 0.00 0.00 0.00 0.00 0.00 0.00 0.00 0.00 0.00 0.00 0.00 0.00 0.00 0.00 0.00 0.00 0.00 0.00 0.00 0.00 0.00 0.00 0.00 0.00 0.00 0.00 0.00 -0.02 -0.02 0.01 0.07 0.05 0.20 0.20 -0.01 -0.01 -0.05 -0.05 -0.01 -0.00 -0.00 -0.00 0.00 0.00 0.00 0.00 0.00 0.00 0.00 0.00 0.00
-0.02 0.01 -0.01 -0.02 -0.02 -0.02 0.02 0.05 0.05 0.05 0.03 0.03 0.18 0.18 0.04 0.00 0.00 0.00 0.00 0.00 0.00 0.00 0.00 0.00 0.00 0.00 0.00 0.00 0.00 0.00 0.00 0.00 0.00 0.00 0.00 0.00 0.00 0.00 0.00 0.00 0.00 0.00 0.00 0.00 0.00 0.00 0.00 0.00 0.00 0.00 0.00 0.00 0.00 0.00 0.00 0.00 0.00 0.00 0.00 0.00 0.00 0.00 0.00 0.00 0.00 0.00 0.00 0.00 0.00 0.00 0.00 0.00 0.00 0.00 0.00 0.00 0.00 0.00 0.00 -0.00 -0.00 0.04 0.06 0.05 0.18 0.18 0.00 0.03 -0.01 -0.01 -0.01 -0.00 0.00 0.00 0.00 0.00 0.00 0.00 0.00 0.00 0.00 0.00 0.00
0.01 0.01 -0.01 -0.01 0.00 0.00 0.02 0.06 0.06 0.06 0.03 0.03 0.25 0.25 0.05 0.00 0.00 0.00 0.00 0.00 0.00 0.00 0.00 0.00 0.00 0.00 0.00 0.00 0.00 0.00 0.00 0.00 0.00 0.00 0.00 0.00 0.00 0.00 0.00 0.00 0.00 0.00 0.00 0.00 0.00 0.00 0.00 0.00 0.00 0.00 0.00 0.00 0.00 0.00 0.00 0.00 0.00 0.00 0.00 0.00 0.00 0.00 0.00 0.00 0.00 0.00 0.00 0.00 0.00 0.00 0.00 0.00 0.00 0.00 0.00 0.00 0.00 0.00 0.00 0.00 0.00 0.00 0.03 0.01 0.15 0.15 0.01 0.03 0.02 0.02 0.00 0.00 -0.00 -0.00 -0.00 0.00 0.00 0.00 0.00 0.00 0.00 0.00 0.00
0.03 0.02 -0.00 0.02 0.04 0.04 0.03 0.06 0.07 0.07 0.04 0.03 0.21 0.21 0.10 0.00 0.00 0.00 0.00 0.00 0.00 0.00 0.00 0.00 0.00 0.00 0.00 0.00 0.00 0.00 0.00 0.00 0.00 0.00 0.00 0.00 0.00 0.00 0.00 0.00 0.00 0.00 0.00 0.00 0.00 0.00 0.00 0.00 0.00 0.00 0.00 0.00 0.00 0.00 0.00 0.00 0.00 0.00 0.00 0.00 0.00 0.00 0.00 0.00 0.00 0.00 0.00 0.00 0.00 0.00 0.00 0.00 0.00 0.00 0.00 0.00 0.00 0.00 0.00 0.00 0.00 0.04 0.02 0.02 0.04 0.04 0.03 0.02 0.01 0.01 0.01 0.00 -0.00 -0.00 -0.00 -0.00 -0.00 0.00 0.00 -0.00 -0.00 0.00 0.00
0.03 0.02 -0.00 0.04 0.05 0.05 0.03 0.05 0.07 0.07 0.07 0.05 0.17 0.17 0.13 0.01 0.01 0.00 0.00 0.00 0.00 0.00 0.00 0.00 0.00 0.00 0.00 0.00 0.00 0.00 0.00 0.00 0.00 0.00 0.00 0.00 0.00 0.00 0.00 0.00 0.00 0.00 0.00 0.00 0.00 0.00 0.00 0.00 0.00 0.00 0.00 0.00 0.00 0.00 0.00 0.00 0.00 0.00 0.00 0.00 0.00 0.00 0.00 0.00 0.00 0.00 0.00 0.00 0.00 0.00 0.00 0.00 0.00 0.00 0.00 0.00 0.00 0.00 0.00 0.03 0.03 0.07 0.04 0.02 0.04 0.04 0.10 0.02 0.00 0.00 0.00 -0.00 -0.00 -0.00 -0.00 -0.00 -0.00 0.00 0.00 0.00 0.00 0.00 0.00
-0.15 0.02 0.01 -0.00 0.07 0.07 0.06 0.07 0.05 0.05 0.12 0.09 0.11 0.11 0.17 0.06 0.06 0.00 0.00 0.00 0.00 0.00 0.00 0.00 0.00 0.00 0.00 0.00 0.00 0.00 0.00 0.00 0.00 0.00 0.00 0.00 0.00 0.00 -0.00 0.00 0.00 0.00 0.00 0.00 0.00 0.00 0.00 0.00 0.00 0.00 0.00 0.00 0.00 0.00 0.00 0.00 0.00 0.00 0.00 0.00 0.00 0.01 0.00 0.00 0.00 0.00 0.00 0.00 0.00 0.00 0.00 0.00 0.00 0.00 0.00 0.00 0.00 0.00 0.00 0.07 0.07 0.12 0.04 0.02 0.03 0.03 0.11 0.05 0.01 0.01 0.01 0.00 0.00 0.00 0.00 0.00 0.00 0.00 0.00 0.00 0.00 0.00 0.00
-0.32 -0.03 0.03 -0.00 0.09 0.09 0.08 0.04 0.05 0.05 0.07 0.08 0.07 0.07 0.14 0.09 0.09 0.00 0.00 0.00 0.00 0.00 0.00 0.00 0.00 0.00 0.00 0.00 0.00 0.00 0.00 0.00 0.00 0.00 0.00 0.00 0.00 0.00 0.00 0.00 0.00 0.00 0.00 0.00 0.00 0.00 0.00 0.00 0.00 0.00 0.00 0.00 0.00 0.00 0.00 0.00 0.00 0.00 0.00 0.00 0.00 0.00 0.00 0.00 0.00 0.00 0.00 0.00 0.00 0.00 0.00 0.00 0.00 0.00 0.00 0.00 0.00 0.00 0.00 0.12 0.12 0.11 0.05 0.03 0.05 0.05 0.11 0.05 0.01 0.01 0.01 0.00 0.00 0.00 0.00 0.00 0.00 0.00 0.00 0.00 0.00 0.00 0.02
-0.46 -0.10 -0.02 0.00 0.11 0.11 0.10 0.05 0.05 0.05 0.05 0.07 0.05 0.05 0.10 0.10 0.10 0.03 0.00 0.00 0.00 0.00 0.00 0.00 0.00 0.00 0.00 0.00 0.00 0.00 0.00 0.00 0.00 0.00 0.00 0.00 0.00 0.00 0.00 0.00 0.00 0.00 0.00 0.00 0.00 0.00 0.00 0.00 0.00 0.00 0.00 0.00 0.00 0.00 0.00 0.00 0.00 0.00 0.00 0.00 0.00 0.00 0.00 0.00 0.00 0.00 0.00 0.00 0.00 0.00 0.00 0.00 0.00 0.00 0.00 0.00 0.00 0.00 0.00 0.11 0.11 0.09 0.04 0.03 0.07 0.07 0.12 0.03 0.01 0.01 0.01 0.00 0.00 0.00 0.00 0.00 0.00 0.00 0.00 0.02 0.02 0.01 0.00
-0.52 -0.29 -0.07 -0.02 0.13 0.13 0.13 0.06 0.06 0.06 0.06 0.09 0.07 0.07 0.08 0.06 0.06 0.03 0.00 0.00 0.00 0.00 0.00 0.00 0.00 0.00 0.00 0.00 0.00 0.00 0.00 0.00 0.00 0.00 0.00 0.00 0.00 0.00 0.00 0.00 0.00 0.00 0.00 0.00 0.00 0.00 0.00 0.00 0.00 0.00 0.00 0.00 0.00 0.00 0.00 0.00 0.00 0.00 0.00 0.00 0.00 0.00 0.00 0.00 0.00 0.00 0.00 0.00 0.00 0.00 0.00 0.00 0.00 0.00 0.00 0.00 0.00 0.00 0.08 0.15 0.15 0.16 0.04 0.04 0.09 0.09 0.11 0.05 0.01 0.01 0.02 0.02 0.00 0.00 0.00 0.00 0.00 0.01 0.01 0.02 0.02 0.00 0.00
-0.50 -0.41 -0.13 -0.05 0.15 0.15 0.19 0.09 0.06 0.06 0.06 0.09 0.06 0.06 0.05 0.04 0.04 0.02 0.00 0.00 0.00 0.00 0.00 0.01 0.01 0.01 0.01 0.00 0.00 0.00 0.00 0.00 0.00 0.00 0.00 0.00 0.00 0.00 0.00 0.00 0.00 0.00 0.00 0.00 0.00 0.00 0.00 0.00 0.00 0.00 0.00 0.00 0.00 0.00 0.00 0.00 0.00 0.00 0.00 0.00 0.00 0.00 0.00 0.00 0.00 0.00 0.00 0.00 -0.00 -0.00 -0.00 0.00 0.00 0.00 0.00 0.00 0.00 0.00 0.15 0.24 0.24 0.17 0.04 0.04 0.07 0.07 0.09 0.03 0.01 0.01 0.02 0.02 0.01 0.01 0.00 0.01 0.01 0.00 0.01 0.02 0.02 0.01 0.00
-0.37 -0.40 -0.12 -0.06 0.12 0.12 0.21 0.12 0.05 0.05 0.06 0.06 0.05 0.05 0.04 0.02 0.02 0.01 0.00 0.00 0.00 0.00 0.00 0.00 0.00 0.00 0.01 0.00 0.00 0.00 0.00 0.00 0.00 0.00 0.00 0.00 0.00 0.00 0.00 0.00 0.00 0.00 0.00 0.00 0.00 0.00 0.00 0.00 0.00 0.00 0.00 0.00 0.00 0.00 0.00 0.00 0.00 0.00 0.00 0.00 0.00 0.01 0.00 0.00 0.00 0.00 0.00 0.00 0.00 0.00 -0.00 -0.01 0.00 0.00 0.00 0.00 0.00 0.00 0.03 0.25 0.25 0.16 0.07 0.06 0.09 0.09 0.10 0.03 0.01 0.01 0.02 0.01 0.00 0.00 0.00 0.00 0.00 0.01 0.01 0.01 0.01 0.00 0.00
-0.23 -0.36 -0.16 -0.04 0.11 0.11 0.21 0.16 0.05 0.05 0.05 0.06 0.03 0.03 0.03 0.01 0.01 0.01 0.00 0.00 0.00 0.00 0.00 0.00 0.01 0.01 0.02 0.01 0.00 0.00 0.00 0.00 0.00 0.00 0.00 0.00 0.00 0.00 0.00 0.00 0.00 0.00 0.00 0.00 0.00 0.00 0.00 0.00 0.00 0.00 0.00 0.00 0.00 0.00 0.00 0.00 0.00 0.00 0.00 0.00 0.00 0.00 0.00 0.00 0.00 0.00 0.00 0.00 0.00 0.00 0.00 -0.01 -0.01 -0.01 -0.02 -0.00 -0.00 0.00 0.03 0.10 0.10 0.12 0.06 0.06 0.14 0.14 0.12 0.06 0.04 0.04 0.04 0.08 0.02 0.02 0.01 0.05 0.05 0.02 0.02 0.00 0.00 0.00 0.00
-0.22 -0.29 -0.11 -0.08 -0.09 -0.09 0.15 0.21 0.05 0.05 0.05 0.04 0.02 0.02 0.01 0.01 0.01 0.00 0.00 0.00 0.00 0.00 0.01 0.01 0.01 0.01 0.02 0.01 0.00 0.00 0.00 0.00 0.00 0.00 0.00 0.00 0.00 0.00 0.00 0.00 0.00 0.00 0.00 0.00 0.00 0.00 0.00 0.00 0.00 0.00 0.00 0.00 0.00 0.00 0.00 0.00 0.00 0.00 0.00 0.00 0.00 0.00 0.00 0.00 0.00 0.00 0.00 0.00 0.00 0.00 -0.00 0.00 -0.00 -0.00 -0.02 -0.05 -0.05 -0.02 -0.02 0.06 0.06 0.09 0.05 0.04 0.08 0.08 0.12 0.05 0.05 0.05 0.08 0.15 0.11 0.11 0.06 0.05 0.05 0.06 0.02 0.00 0.00 0.00 0.00
-0.23 -0.28 -0.10 -0.12 -0.13 -0.13 0.12 0.21 0.05 0.05 0.04 0.02 0.01 0.01 0.01 0.01 0.01 0.00 0.00 0.00 0.00 0.00 0.01 0.01 0.01 0.01 0.01 0.01 0.01 0.01 0.00 0.00 0.00 0.00 0.00 0.00 0.00 0.00 0.00 0.00 0.00 0.00 0.00 0.00 0.00 0.00 0.00 0.00 0.00 0.00 0.00 0.00 0.00 0.00 0.00 0.00 0.00 0.00 0.00 0.00 0.00 0.00 0.04 0.00 0.00 0.00 0.00 0.00 0.00 0.00 0.00 0.00 -0.00 -0.00 0.00 -0.01 -0.01 -0.03 -0.01 -0.01 -0.01 0.05 0.06 0.01 0.04 0.04 0.07 0.04 0.08 0.08 0.11 0.13 0.13 0.13 0.09 0.02 0.02 0.03 0.01 0.00 0.00 0.00 0.00
-0.14 -0.22 -0.11 -0.12 -0.14 -0.14 -0.00 0.20 0.15 0.15 -0.02 0.00 0.01 0.01 0.00 0.00 0.00 0.00 0.01 0.00 0.00 0.00 0.01 0.01 0.01 0.01 0.01 0.01 0.01 0.01 0.01 0.00 0.00 0.00 0.00 0.00 0.00 0.00 0.00 0.00 0.00 0.00 0.00 0.00 0.00 0.00 0.00 0.00 0.00 0.00 0.00 0.00 0.00 0.00 0.00 0.00 0.00 0.00 0.00 0.00 0.00 0.00 0.01 0.00 0.00 0.00 0.00 0.00 0.00 0.00 0.00 0.00 0.00 0.00 0.00 -0.00 -0.00 -0.00 0.00 0.02 0.02 0.03 -0.00 -0.02 0.01 0.01 0.03 0.02 0.10 0.10 0.12 0.11 0.09 0.09 0.05 0.00 0.00 0.00 0.00 0.00 0.00 0.00 0.00
-0.13 -0.20 -0.22 -0.05 -0.13 -0.13 -0.06 0.15 0.21 0.21 -0.04 0.00 0.01 0.01 0.00 0.00 0.00 0.00 0.00 0.00 0.00 0.01 0.01 0.01 0.01 0.01 0.01 0.01 0.01 0.01 0.01 0.00 0.00 0.00 0.00 0.00 0.00 0.00 0.00 0.00 0.00 0.00 0.00 0.00 0.00 0.00 0.00 0.00 0.00 0.00 0.00 0.00 0.00 0.00 0.00 0.00 0.00 0.00 0.00 0.00 0.00 0.00 0.00 0.00 0.00 0.00 0.00 0.00 0.00 0.00 0.00 0.00 0.00 0.00 0.00 0.00 0.00 0.00 0.00 0.01 0.01 0.05 0.01 0.00 0.01 0.01 0.02 0.01 0.04 0.04 0.12 0.05 0.04 0.04 0.01 0.00 0.00 0.00 0.00 0.00 0.00 0.00 0.00
-0.10 -0.18 -0.21 -0.03 -0.12 -0.12 -0.09 0.09 0.15 0.15 0.02 0.01 0.01 0.01 0.00 0.00 0.00 -0.01 -0.01 -0.02 -0.02 0.01 0.01 0.01 0.01 0.01 0.01 0.01 0.01 0.01 0.01 0.00 0.00 0.00 0.00 0.00 0.00 0.00 0.00 0.00 0.00 0.00 0.00 0.00 0.00 0.00 0.00 0.00 0.00 0.00 0.00 0.00 0.00 0.00 0.00 0.00 0.00 0.00 0.00 0.00 0.00 0.00 0.00 0.00 0.00 0.00 0.00 0.00 0.00 0.00 0.00 0.00 0.00 0.00 0.00 0.00 0.00 0.00 0.00 0.01 0.01 0.03 0.00 0.00 -0.00 -0.00 -0.00 -0.09 -0.05 -0.05 0.05 0.01 0.00 0.00 0.00 0.00 0.00 0.00 0.00 0.00 0.00 0.00 0.00
-0.16 -0.14 -0.23 -0.07 -0.12 -0.12 -0.10 0.07 0.15 0.15 0.00 -0.00 0.00 0.00 0.00 0.00 0.00 0.00 -0.01 -0.03 -0.03 -0.01 0.01 0.01 0.01 0.01 0.01 0.00 0.00 0.00 0.00 0.00 0.00 0.00 0.00 0.00 0.00 0.00 0.00 0.00 0.00 0.00 0.00 0.00 0.00 0.00 0.00 0.00 0.00 0.00 0.00 0.00 0.00 0.00 0.00 0.00 0.00 0.00 0.00 0.00 0.00 0.00 0.00 0.00 0.00 0.00 0.00 0.00 0.00 0.00 0.00 0.00 0.00 0.00 0.00 0.00 0.00 0.00 0.00 0.01 0.01 0.01 0.00 0.00 0.00 0.00 -0.00 -0.00 0.01 0.01 0.01 -0.05 0.00 0.00 0.00 -0.00 -0.00 -0.01 -0.01 0.00 0.00 0.00 0.00
-0.01 -0.17 -0.14 -0.10 -0.14 -0.14 -0.15 0.08 0.10 0.10 -0.06 -0.07 -0.04 -0.04 0.00 0.00 0.00 0.00 -0.00 -0.02 -0.02 -0.06 -0.01 0.00 0.00 0.00 0.01 0.00 0.00 0.00 0.00 0.00 0.00 0.00 0.00 0.00 0.00 0.00 0.00 0.00 0.00 0.00 0.00 0.00 0.00 0.00 0.00 0.00 0.00 0.00 0.00 0.00 0.00 0.00 0.00 0.00 0.00 0.00 0.00 0.00 0.00 0.00 0.00 0.00 0.00 0.00 0.00 0.00 0.00 0.00 0.00 0.00 0.00 0.00 0.00 0.00 0.00 0.00 0.00 0.00 0.00 0.00 0.00 0.00 0.00 0.00 0.00 0.00 0.00 0.00 0.02 0.01 -0.07 -0.07 0.00 0.01 0.01 0.00 0.00 -0.00 -0.00 -0.01 -0.01
0.01 -0.07 -0.09 -0.03 -0.09 -0.09 -0.13 0.07 0.09 0.09 0.08 -0.12 -0.13 -0.13 -0.01 -0.01 -0.01 0.00 -0.00 -0.01 -0.01 -0.02 -0.07 -0.02 0.00 0.00 0.00 0.00 0.00 0.00 0.00 0.00 0.00 0.00 0.00 0.00 0.00 0.00 0.00 0.00 0.00 0.00 0.00 0.00 0.00 0.00 0.00 0.00 0.00 0.00 0.00 0.00 0.00 0.00 0.00 0.00 0.00 0.00 0.00 0.00 0.00 0.00 0.00 0.00 0.00 0.00 0.00 0.00 0.00 0.00 0.00 0.00 0.00 0.00 0.00 0.00 0.00 0.00 0.00 0.00 0.00 0.00 0.00 0.00 0.00 0.00 0.00 0.00 0.00 0.00 0.06 0.00 0.00 0.00 0.01 0.11 0.11 -0.04 -0.03 0.16 0.16 0.18 0.01
-0.01 -0.01 -0.08 0.02 -0.01 -0.01 -0.06 0.04 0.08 0.08 0.09 -0.01 -0.13 -0.13 -0.13 -0.04 -0.04 -0.00 -0.00 -0.01 -0.01 -0.01 -0.06 -0.04 -0.01 -0.01 0.00 0.00 0.00 0.00 0.00 0.00 0.00 0.00 0.00 0.00 0.00 0.00 0.00 0.00 0.00 0.00 0.00 0.00 0.00 0.00 0.00 0.00 0.00 0.00 0.00 0.00 0.00 0.00 0.00 0.00 0.00 0.00 0.00 0.00 0.00 0.00 0.00 0.00 0.00 0.00 0.00 0.00 0.01 0.01 0.00 0.00 0.00 0.00 0.00 0.00 0.00 0.00 0.00 0.00 0.00 0.00 0.00 0.00 0.00 0.00 0.00 -0.04 0.00 0.00 0.00 -0.07 0.00 0.00 0.01 0.12 0.12 -0.01 -0.02 -0.00 -0.00 -0.00 -0.00
-0.08 -0.01 -0.03 -0.03 0.03 0.03 0.00 0.02 0.06 0.06 0.12 0.03 -0.01 -0.01 0.03 -0.04 -0.04 -0.01 -0.01 -0.01 -0.01 -0.01 -0.01 -0.07 -0.03 -0.03 -0.02 0.00 0.00 0.00 0.00 0.00 0.00 0.00 0.00 0.00 0.00 0.00 0.00 0.00 0.00 0.00 0.00 0.00 0.00 0.00 0.00 0.00 0.00 0.00 0.00 0.00 0.00 0.00 0.00 0.00 0.00 0.00 0.00 0.00 0.00 0.00 0.00 0.00 0.00 0.00 0.00 0.00 0.01 0.01 0.00 0.00 0.00 0.00 0.00 0.00 0.00 0.00 0.00 0.00 0.00 0.00 0.00 0.00 0.00 0.00 0.00 0.00 -0.06 -0.06 -0.10 -0.09 -0.17 -0.17 -0.07 -0.07 -0.07 0.00 0.00 0.00 0.00 0.00 0.00
-0.05 -0.09 0.04 0.04 0.04 0.04 0.04 0.02 0.04 0.04 0.08 0.03 0.07 0.07 0.10 -0.07 -0.07 -0.05 -0.02 -0.00 -0.00 -0.02 -0.02 -0.06 -0.05 -0.05 -0.03 0.00 0.00 0.00 0.00 0.00 0.00 0.00 0.00 0.00 0.00 0.00 0.00 0.00 0.00 0.00 0.00 0.00 0.00 0.00 0.00 0.00 0.00 0.00 0.00 0.00 0.00 0.00 0.00 0.00 0.00 0.00 0.00 0.00 0.00 0.00 0.00 0.00 0.00 0.00 0.00 0.00 0.00 0.00 0.00 0.00 0.00 0.00 0.00 0.00 0.00 0.00 0.00 0.00 0.00 0.00 0.00 0.00 0.00 0.00 0.00 0.00 0.00 0.00 -0.04 -0.01 -0.05 -0.05 -0.10 -0.09 -0.09 -0.11 0.00 0.00 0.00 0.00 0.00
-0.06 -0.11 0.00 0.07 0.06 0.06 0.03 0.05 0.03 0.03 0.05 0.02 0.02 0.02 0.10 0.05 0.05 -0.07 -0.03 0.00 0.00 -0.00 -0.01 -0.04 -0.03 -0.03 -0.02 0.00 0.00 0.00 0.00 0.00 0.00 0.00 0.00 0.00 0.00 0.00 0.00 0.00 0.00 0.00 0.00 0.00 0.00 0.00 0.00 0.00 0.00 0.00 0.00 0.00 0.00 0.00 0.00 0.00 0.00 0.00 0.00 0.00 0.00 0.00 0.00 0.00 0.00 0.00 0.00 0.00 0.00 0.00 0.00 0.01 0.00 0.00 0.00 0.00 0.00 0.00 0.00 0.00 0.00 0.00 0.00 0.00 0.00 0.00 0.00 0.00 0.00 0.00 0.00 0.00 0.00 0.00 -0.03 -0.04 -0.04 -0.09 -0.11 -0.11 -0.11 0.00 0.00
-0.21 -0.17 -0.12 0.07 0.06 0.06 0.07 0.06 0.04 0.04 0.03 -0.03 -0.03 -0.03 0.03 0.05 0.05 -0.06 -0.06 -0.01 -0.01 0.00 -0.00 -0.02 -0.01 -0.01 -0.02 -0.01 0.00 0.00 0.00 0.00 0.00 0.00 0.00 0.00 0.00 0.00 0.00 0.00 0.00 0.00 0.00 0.00 0.00 0.00 0.00 0.00 0.00 0.00 0.00 0.00 0.00 0.00 0.00 0.00 0.00 0.00 0.00 0.00 0.00 0.00 0.00 0.00 0.00 0.00 0.00 0.00 0.00 0.00 0.01 0.01 0.00 0.00 0.00 0.00 0.00 0.00 0.00 0.00 0.00 0.00 0.00 0.00 0.00 0.00 0.00 0.00 0.00 0.00 0.00 0.00 0.00 0.00 0.00 0.00 0.00 0.00 -0.07 -0.05 -0.05 -0.09 -0.00
-0.21 -0.21 -0.23 -0.05 0.06 0.06 0.05 0.05 0.07 0.07 0.05 -0.03 -0.03 -0.03 0.00 0.03 0.03 -0.04 -0.13 -0.03 -0.03 0.00 0.00 -0.00 -0.01 -0.01 -0.01 -0.01 0.00 0.00 0.00 0.00 0.00 0.00 0.00 0.00 0.00 0.00 0.00 0.00 0.00 0.00 0.00 0.00 0.00 0.00 0.00 0.00 0.00 0.00 0.00 0.00 0.00 0.00 0.00 0.00 0.00 0.00 0.00 0.00 0.00 0.00 0.00 0.00 0.00 0.00 0.00 0.00 0.00 0.00 0.00 0.01 0.00 0.00 0.00 0.00 0.00 0.00 0.00 0.00 0.00 0.00 0.00 0.00 0.00 0.00 0.00 0.00 0.00 0.00 0.00 0.00 0.00 0.00 0.00 0.00 0.00 0.00 0.00 0.00 0.00 -0.02 -0.05
-0.04 -0.26 -0.27 -0.12 0.07 0.07 0.04 -0.04 0.09 0.09 0.06 -0.02 -0.00 -0.00 0.00 0.02 0.02 0.01 -0.10 -0.08 -0.08 -0.00 -0.00 -0.00 -0.01 -0.01 -0.01 -0.00 -0.00 -0.00 0.00 0.00 -0.00 -0.00 0.00 0.00 0.00 0.00 0.00 0.00 0.00 0.00 0.00 0.00 0.00 0.00 0.00 0.00 0.00 0.00 0.00 0.00 0.00 0.00 0.00 0.00 0.00 0.00 0.00 0.00 0.00 0.00 0.00 0.00 0.00 0.00 0.00 0.00 0.00 0.00 0.00 0.01 0.00 0.00 0.00 0.01 0.01 0.00 0.00 0.00 0.00 0.00 0.00 0.00 0.00 0.00 0.00 0.00 0.00 0.00 0.00 0.00 0.00 0.00 0.00 0.00 0.00 0.00 0.00 0.00 0.00 0.00 0.01
0.21 -0.17 -0.23 -0.20 0.05 0.05 0.02 -0.07 -0.09 -0.09 0.11 0.06 -0.01 -0.01 0.04 0.04 0.04 0.02 -0.02 -0.08 -0.08 -0.05 -0.02 -0.03 -0.01 -0.01 -0.01 -0.01 -0.00 -0.00 0.00 -0.00 -0.00 -0.00 -0.00 0.00 0.00 0.00 0.00 0.00 0.00 0.00 0.00 0.00 0.00 0.00 0.00 0.00 0.00 0.00 0.00 0.00 0.00 0.00 0.00 0.00 0.00 0.00 0.00 0.00 0.00 0.00 0.00 0.00 0.00 0.00 0.00 0.00 0.00 0.00 0.00 0.00 0.00 0.00 0.00 0.01 0.01 0.00 0.00 0.00 0.00 0.00 0.00 0.00 0.01 0.01 -0.00 0.00 0.00 0.00 0.00 0.00 0.00 0.00 0.00 0.00 0.00 0.00 0.00 0.01 0.01 0.01 0.01
0.63 0.31 -0.04 -0.01 0.02 0.02 -0.03 0.01 0.30 0.30 0.28 0.20 0.06 0.06 0.05 0.06 0.06 0.06 0.06 0.05 0.05 -0.02 -0.04 -0.05 -0.04 -0.04 -0.03 -0.02 -0.01 -0.01 -0.01 -0.01 -0.01 -0.01 -0.02 -0.01 -0.01 -0.01 -0.00 -0.00 -0.00 0.00 0.00 0.00 0.00 0.00 0.00 0.00 0.00 0.00 0.00 0.00 0.00 0.00 0.00 0.00 0.00 0.00 0.00 0.00 0.00 0.00 0.00 0.00 0.00 0.00 0.00 0.00 0.00 0.00 0.00 0.00 0.00 0.00 0.00 0.00 0.00 0.00 0.00 0.00 0.00 0.00 0.00 0.00 0.00 0.00 0.00 0.00 0.00 0.00 0.00 0.00 0.00 0.00 0.00 0.00 0.00 0.00 0.00 0.03 0.03 0.01 0.00
0.83 0.54 0.18 0.11 0.12 0.12 0.07 0.14 0.52 0.52 0.49 0.36 0.32 0.32 0.07 0.05 0.05 0.09 0.08 0.10 0.10 0.02 0.01 -0.06 -0.07 -0.07 -0.05 -0.02 -0.01 -0.01 -0.01 -0.01 -0.02 -0.02 -0.02 -0.02 -0.02 -0.02 -0.01 -0.01 -0.01 -0.01 0.00 0.00 0.00 0.00 0.00 0.00 0.00 0.00 0.00 0.00 0.00 0.00 0.00 0.00 0.00 0.00 0.00 0.00 0.00 0.00 0.00 0.00 0.00 0.00 0.00 0.00 0.00 0.00 0.00 0.00 0.00 0.00 0.00 0.00 0.00 0.00 0.00 0.00 0.00 0.00 0.00 0.00 0.00 0.00 0.00 0.00 0.00 0.00 0.00 0.00 0.00 0.00 0.00 0.00 0.00 0.00 0.00 0.02 0.02 0.01 0.01
0.87 0.81 0.47 0.47 0.46 0.46 0.36 0.84 0.85 0.85 0.81 0.64 0.48 0.48 0.37 0.12 0.12 0.08 0.10 0.11 0.11 0.03 0.04 -0.05 -0.05 -0.05 -0.06 -0.03 -0.03 -0.03 -0.02 -0.01 -0.02 -0.02 -0.02 -0.03 -0.03 -0.08 -0.05 -0.03 -0.03 -0.02 -0.01 0.00 0.00 0.00 0.00 0.00 0.00 0.00 0.00 0.00 0.00 0.00 0.00 0.00 0.00 0.00 0.00 0.00 0.00 0.00 0.00 0.00 0.00 0.00 0.00 0.00 0.00 0.00 0.00 0.00 0.00 0.00 0.00 0.00 0.00 0.00 0.00 0.00 0.00 0.00 0.00 0.00 0.00 0.00 0.00 0.00 0.00 0.00 0.00 0.00 0.00 0.00 0.00 0.00 0.00 0.01 0.01 0.04 0.04 0.01 0.01
1.16 1.09 0.88 1.01 1.12 1.12 0.93 1.37 1.25 1.25 1.05 0.86 0.70 0.70 0.55 0.19 0.19 0.11 0.10 0.12 0.12 0.08 0.06 -0.05 -0.05 -0.05 -0.02 -0.03 -0.02 -0.02 -0.02 -0.02 -0.02 -0.02 -0.02 -0.03 -0.03 -0.10 -0.09 -0.06 -0.06 -0.06 -0.03 -0.01 0.00 0.00 0.00 0.00 0.00 0.00 0.00 0.00 0.00 0.00 0.00 0.00 0.00 0.00 0.00 0.00 0.00 0.00 0.00 0.00 0.00 0.00 0.00 0.00 0.00 0.00 0.00 0.00 0.00 0.00 0.00 0.00 0.00 0.00 0.00 0.00 0.00 0.00 0.00 0.00 0.00 0.00 0.00 0.00 0.00 0.00 0.00 0.00 0.00 0.00 0.01 0.01 0.01 0.02 0.01 0.05 0.05 0.02 0.01
1.86 1.83 1.76 1.58 1.36 1.36 1.57 2.00 1.80 1.80 1.42 1.14 0.99 0.99 0.80 0.26 0.26 0.17 0.11 0.12 0.12 0.13 0.07 -0.01 0.02 0.02 0.01 -0.02 -0.03 -0.03 -0.02 -0.03 -0.03 -0.03 -0.02 -0.02 -0.02 -0.03 -0.08 -0.07 -0.07 -0.10 -0.05 -0.02 -0.00 -0.00 0.00 0.00 0.00 0.00 0.00 0.00 0.00 0.00 0.00 0.00 0.00 0.00 0.00 0.00 0.00 0.00 0.00 0.00 0.00 0.00 0.00 0.00 0.00 0.00 0.00 0.00 0.00 0.00 0.00 0.00 0.00 0.00 0.00 0.00 0.00 0.00 0.00 0.00 0.00 0.00 0.00 0.00 0.00 0.00 0.00 0.00 0.00 0.00 0.00 0.00 0.00 0.01 0.02 0.03 0.03 0.07 0.00
2.28 2.43 2.53 1.94 1.64 1.64 2.01 2.47 2.53 2.53 2.29 1.56 1.20 1.20 0.87 0.50 0.50 0.16 0.10 0.09 0.09 0.14 0.10 0.00 0.12 0.12 0.10 0.04 -0.03 -0.03 -0.04 -0.06 -0.04 -0.04 -0.04 -0.04 -0.04 -0.05 -0.07 -0.15 -0.15 -0.17 -0.12 -0.03 -0.01 -0.01 -0.00 0.00 0.00 0.00 0.00 0.00 0.00 0.00 0.00 0.00 0.00 0.00 0.00 0.00 0.00 0.00 0.00 0.00 0.00 0.00 0.00 0.00 0.00 0.00 0.00 0.00 0.00 0.00 0.00 0.00 0.00 0.00 0.00 0.00 0.00 0.00 0.00 0.00 0.00 0.00 0.00 0.00 0.00 0.00 0.00 0.00 0.00 0.00 0.01 0.01 0.01 0.03 0.03 0.03 0.03 0.07 0.02
2.23 2.44 2.60 2.27 2.50 2.50 2.35 2.50 2.80 2.80 2.78 2.60 1.65 1.65 1.17 0.79 0.79 0.33 0.17 0.06 0.06 0.31 0.30 0.09 0.08 0.08 0.18 0.09 0.01 0.01 -0.06 -0.12 -0.08 -0.08 -0.06 -0.10 -0.10 -0.11 -0.11 -0.17 -0.17 -0.18 -0.16 -0.06 -0.03 -0.03 -0.00 -0.00 0.00 0.00 0.00 0.00 0.00 0.00 0.00 0.00 0.00 0.00 0.00 0.00 0.00 0.00 0.00 0.00 0.00 0.00 0.00 0.00 0.00 0.00 0.00 0.00 0.00 0.00 0.00 0.00 0.00 0.00 0.00 0.00 0.00 0.00 0.00 0.00 0.00 0.00 0.00 0.00 0.00 0.00 0.00 0.00 0.00 0.00 0.02 0.03 0.03 0.06 0.06 0.03 0.03 0.06 0.02
1.89 2.13 2.36 2.19 2.41 2.41 2.49 2.38 2.76 2.76 2.82 2.82 2.23 2.23 1.79 1.38 1.38 0.80 0.58 0.98 0.98 0.80 0.53 0.32 0.15 0.15 0.13 0.09 0.05 0.05 -0.10 -0.13 -0.13 -0.13 -0.20 -0.15 -0.15 -0.17 -0.18 -0.16 -0.16 -0.14 -0.13 -0.12 -0.08 -0.08 -0.03 -0.08 -0.03 -0.03 0.00 0.00 0.00 0.00 0.00 0.00 0.00 0.00 0.00 0.00 0.00 0.00 0.00 0.00 0.00 0.00 0.00 0.00 0.00 0.00 0.00 0.00 0.00 0.00 0.00 0.00 0.00 0.00 0.00 0.00 0.00 0.00 0.00 0.00 0.00 0.00 0.00 0.00 0.00 0.00 0.00 0.00 0.00 0.00 0.02 0.05 0.05 0.06 0.04 0.04 0.04 0.03 0.01
1.58 1.74 1.72 1.92 1.88 1.88 2.05 2.18 2.47 2.47 2.69 2.83 3.03 3.03 2.70 2.20 2.20 1.70 1.06 1.26 1.26 1.12 0.75 0.50 0.35 0.35 0.14 0.11 0.06 0.06 0.03 -0.09 -0.13 -0.13 -0.19 -0.12 -0.12 -0.12 -0.20 -0.25 -0.25 -0.22 -0.17 -0.13 -0.15 -0.15 -0.13 -0.12 -0.06 -0.06 -0.02 -0.01 -0.01 -0.01 -0.01 -0.01 -0.01 -0.00 0.00 -0.00 -0.00 0.00 0.00 0.00 0.00 0.00 0.00 0.00 0.00 0.00 0.00 0.00 0.00 0.00 0.00 0.00 0.00 0.00 0.00 0.00 0.00 0.00 0.00 0.00 0.00 0.00 0.00 0.00 0.00 0.00 0.00 0.00 0.00 0.00 0.04 0.06 0.06 0.06 0.03 0.02 0.02 0.02 0.01
1.32 1.44 1.53 1.79 1.52 1.52 1.57 1.68 1.94 1.94 2.12 2.54 3.55 3.55 3.89 3.40 3.40 2.77 2.12 1.57 1.57 1.42 0.98 0.67 0.54 0.54 0.44 0.09 0.08 0.08 0.15 -0.02 -0.06 -0.06 -0.09 -0.10 -0.10 -0.16 -0.22 -0.32 -0.32 -0.32 -0.20 -0.22 -0.20 -0.20 -0.16 -0.15 -0.11 -0.11 -0.08 -0.01 -0.00 -0.00 -0.01 0.00 0.00 -0.01 -0.00 -0.02 -0.02 -0.01 -0.00 0.00 0.00 0.00 -0.00 0.00 0.00 0.00 0.00 0.00 0.00 0.00 0.00 0.00 0.00 0.00 0.00 0.00 0.00 0.00 0.00 0.00 0.00 0.00 0.00 0.00 0.00 0.00 0.00 0.00 0.00 0.00 0.04 0.08 0.08 0.08 0.05 0.01 0.01 0.02 0.01
1.21 1.13 1.32 1.69 1.35 1.35 1.18 1.29 1.59 1.59 1.98 2.29 2.66 2.66 3.56 3.93 3.93 3.81 2.93 2.35 2.35 1.95 1.79 0.97 0.71 0.71 0.63 0.41 0.28 0.28 0.19 0.02 -0.00 -0.00 -0.02 -0.07 -0.07 -0.11 -0.41 -0.39 -0.39 -0.28 -0.16 -0.21 -0.18 -0.18 -0.07 -0.06 -0.06 -0.06 -0.08 -0.08 -0.04 -0.04 -0.03 -0.02 -0.02 -0.01 -0.01 -0.05 -0.05 -0.06 -0.04 -0.03 -0.01 -0.01 -0.03 -0.01 0.00 0.00 0.00 0.00 0.00 0.00 0.00 0.00 0.00 -0.00 0.00 0.00 0.00 0.00 0.00 0.00 0.00 0.00 0.00 -0.01 0.00 0.00 0.00 0.00 0.00 0.00 0.00 0.09 0.09 0.09 0.06 0.04 0.04 0.01 0.00
1.00 0.93 0.96 1.51 1.47 1.47 1.13 0.97 0.89 0.89 1.84 2.08 2.12 2.12 2.71 3.09 3.09 3.49 2.91 2.89 2.89 2.59 2.31 1.51 1.11 1.11 0.90 0.81 0.49 0.49 0.21 0.01 -0.02 -0.02 -0.08 -0.08 -0.08 -0.19 -0.22 -0.18 -0.18 -0.15 -0.13 -0.16 -0.13 -0.13 -0.01 0.01 0.00 0.00 0.00 -0.02 -0.02 -0.02 -0.02 -0.03 -0.03 -0.04 -0.05 -0.09 -0.09 -0.09 -0.09 -0.07 -0.04 -0.04 -0.08 -0.05 -0.01 -0.01 -0.00 -0.00 0.00 0.00 -0.00 0.00 0.00 0.00 0.00 0.00 0.00 0.00 0.00 0.00 0.00 0.00 0.00 0.00 0.00 0.00 0.00 0.00 0.00 0.00 0.00 0.00 0.00 0.05 0.06 0.03 0.03 0.00 0.00
0.90 0.85 0.81 1.17 1.60 1.60 1.37 0.91 0.67 0.67 1.42 1.67 1.82 1.82 2.14 2.34 2.34 1.90 2.18 2.50 2.50 2.58 2.66 2.60 1.67 1.67 1.29 1.08 0.54 0.54 0.27 0.11 -0.05 -0.05 -0.09 -0.11 -0.11 -0.13 -0.15 -0.12 -0.12 -0.13 -0.14 -0.12 -0.08 -0.08 -0.02 0.00 0.01 0.01 0.02 -0.00 -0.02 -0.02 -0.03 -0.05 -0.05 -0.07 -0.08 -0.12 -0.12 -0.10 -0.09 -0.08 -0.08 -0.08 -0.07 -0.04 -0.02 -0.02 -0.01 -0.00 -0.00 -0.00 0.00 0.00 0.00 0.00 0.00 0.00 0.00 0.00 0.00 0.00 0.00 0.00 0.00 0.00 0.00 0.00 0.00 0.00 0.00 0.00 0.00 0.00 0.00 0.05 0.04 0.01 0.01 0.00 0.00
0.79 0.76 0.71 0.96 1.60 1.60 1.53 1.06 0.93 0.93 1.13 1.40 1.63 1.63 1.68 1.76 1.76 1.45 1.70 2.07 2.07 2.33 2.50 2.74 2.08 2.08 1.74 1.41 1.40 1.40 0.57 0.32 0.09 0.09 -0.06 -0.11 -0.11 -0.16 -0.12 -0.13 -0.13 -0.13 -0.09 -0.07 -0.04 -0.04 -0.04 -0.02 0.01 0.01 0.09 0.03 0.03 0.03 0.00 -0.07 -0.07 -0.11 -0.12 -0.12 -0.12 -0.10 -0.07 -0.07 -0.04 -0.04 -0.11 -0.08 -0.04 -0.04 -0.02 -0.01 -0.00 -0.00 -0.00 0.00 0.00 0.00 0.00 0.00 0.00 0.00 0.00 0.00 0.00 0.00 0.00 0.00 0.00 0.00 0.00 0.00 0.00 0.00 0.00 0.00 0.00 0.02 0.04 0.03 0.03 0.00 0.00
0.82 0.61 0.66 0.68 0.97 0.97 1.55 1.23 0.96 0.96 1.04 1.22 1.45 1.45 1.44 1.17 1.17 1.43 1.57 1.74 1.74 2.08 2.22 2.25 2.05 2.05 1.94 2.00 1.91 1.91 1.22 0.72 0.43 0.43 0.22 -0.00 -0.00 0.11 0.06 -0.03 -0.03 -0.08 -0.07 -0.03 -0.02 -0.02 -0.01 -0.01 0.04 0.04 0.11 0.08 0.09 0.09 0.03 -0.01 -0.01 -0.09 -0.12 -0.08 -0.08 -0.06 -0.04 -0.04 -0.00 -0.00 -0.00 -0.04 -0.04 -0.04 -0.01 0.00 0.01 0.01 0.00 0.00 0.00 0.00 0.00 -0.00 -0.00 0.00 0.00 0.00 0.00 0.00 0.00 0.00 0.00 0.00 0.00 0.00 0.00 0.00 0.00 0.00 0.00 0.01 0.04 0.02 0.02 0.01 0.00
0.88 0.63 0.61 0.64 0.71 0.71 1.45 1.41 1.19 1.19 1.09 1.21 1.24 1.24 1.24 1.26 1.26 1.22 1.17 1.23 1.23 1.65 1.94 2.06 1.86 1.86 1.93 2.11 2.33 2.33 2.29 1.27 0.80 0.80 0.53 0.38 0.38 0.35 0.20 0.04 0.04 -0.04 -0.07 -0.05 -0.08 -0.08 -0.03 0.02 -0.00 -0.00 0.04 0.14 0.13 0.13 0.05 0.01 0.01 -0.04 -0.08 -0.06 -0.06 -0.07 -0.04 -0.02 -0.01 -0.01 0.00 -0.00 -0.01 -0.01 0.01 0.01 0.01 0.01 0.01 0.01 0.01 0.00 0.00 0.00 0.00 0.00 0.00 0.00 0.00 0.00 0.00 0.00 0.00 0.00 0.00 0.00 0.00 0.00 0.00 0.00 0.00 0.00 0.01 0.00 0.00 0.00 -0.00
0.82 0.70 0.62 0.68 0.70 0.70 1.13 1.40 1.32 1.32 1.27 1.22 1.35 1.35 1.64 1.50 1.50 1.08 0.88 0.85 0.85 1.23 1.78 2.01 1.75 1.75 1.79 2.04 2.35 2.35 2.59 1.70 1.21 1.21 0.85 0.63 0.63 0.45 0.34 0.24 0.24 0.15 -0.02 -0.07 -0.04 -0.04 -0.01 -0.03 -0.05 -0.05 -0.04 0.02 0.05 0.05 0.02 -0.01 -0.01 -0.03 -0.11 -0.13 -0.13 -0.14 -0.12 -0.04 -0.02 -0.02 0.00 0.01 0.01 0.01 0.01 0.01 0.01 0.01 0.01 0.00 0.00 0.01 0.00 0.00 0.00 0.00 0.00 0.00 0.00 0.00 0.00 0.00 0.00 0.00 0.00 0.00 0.00 0.00 0.00 0.00 0.00 0.00 0.00 0.00 0.00 0.00 -0.00
0.75 0.74 0.63 0.78 0.79 0.79 0.96 1.16 1.25 1.25 1.23 1.46 1.58 1.58 1.59 1.59 1.59 1.16 1.08 0.96 0.96 1.00 1.52 1.69 1.56 1.56 1.44 1.78 1.93 1.93 2.07 2.17 1.51 1.51 1.28 1.18 1.18 0.93 0.42 0.41 0.41 0.29 0.16 -0.00 -0.02 -0.02 0.01 0.01 -0.03 -0.03 -0.03 0.00 0.01 0.01 0.00 -0.05 -0.05 -0.09 0.07 0.01 0.01 -0.04 -0.07 -0.06 0.09 0.09 0.07 0.05 0.03 0.03 0.01 0.00 0.00 0.00 0.00 0.00 0.00 0.00 0.01 0.00 0.00 0.00 0.00 0.00 0.00 0.00 0.00 0.00 0.00 0.00 0.00 0.00 0.00 0.00 0.00 0.00 0.00 0.00 0.00 0.00 0.00 0.00 -0.00
0.74 0.74 0.62 0.75 0.89 0.89 0.92 0.99 1.05 1.05 1.09 1.38 1.54 1.54 1.29 1.45 1.45 1.30 1.32 1.21 1.21 1.13 1.27 1.41 1.38 1.38 1.63 1.61 1.53 1.53 1.48 1.65 1.70 1.70 1.55 1.37 1.37 0.78 0.44 0.43 0.43 0.32 0.19 0.02 0.07 0.07 0.01 -0.01 -0.00 -0.00 0.01 0.02 0.00 0.00 0.01 0.04 0.04 0.06 0.17 0.16 0.16 0.15 0.16 0.13 0.20 0.20 0.11 0.07 0.04 0.04 0.03 0.01 0.00 0.00 0.00 0.00 0.00 0.00 0.00 0.00 0.00 0.01 0.00 0.00 0.00 0.00 0.00 0.00 0.00 0.00 0.01 0.01 0.01 0.01 0.01 0.01 0.01 0.00 0.00 0.00 0.00 0.00 0.00